Location: Czekan�w
(50.3488°N, 18.7344°E)
Time: 08:55:28
(UTC+00:00)

USA 215 - Pass Details

Date: 17 February 2020
Orbit: 1098 x 1110 km, 123.0° (Epoch: 08 March)

Event Time Altitude Azimuth Distance (km) Brightness Sun altitude
Rises 03:09:19 0° 66° (ENE) 3,921 7.4 -26.8°
Reaches altitude 10° 03:11:50 10° 62° (ENE) 2,964 6.5 -26.4°
Maximum altitude 03:18:11 56° 347° (NNW) 1,298 3.5 -25.4°
Enters shadow 03:20:00 43° 299° (WNW) 1,504 3.6 -25.1°
